TKJ3311 LTFH-LTFJ

Flight info

Callsign TKJ3311
Flight time 1h 17m
Altitude 36000
Route HAVZA UW71 ILHAN UT79 NAMAN
Aircraft A321/M-SDE3FGHIRWY/LB1

Departure

Time 2026-04-20 14:53
Airport Samsun-Çarşamba Airport (LTFH)

Arrival

Time 2026-04-20 16:11
Airport Istanbul Sabiha Gökçen International Airport (LTFJ)
Time Latitude Longitude Altitude Speed Heading
2026-04-20 14:17 41.25960 36.55392 31 ft 0 kts 131°
2026-04-20 14:38 41.25970 36.55379 10 ft 4 kts 156°
2026-04-20 14:39 41.25993 36.55378 17 ft 4 kts 208°
2026-04-20 14:39 41.26016 36.55397 11 ft 4 kts 207°
2026-04-20 14:39 41.26036 36.55405 11 ft 3 kts 143°
2026-04-20 14:39 41.26038 36.55404 25 ft 0 kts 134°
2026-04-20 14:44 41.26037 36.55404 24 ft 1 kts 134°
2026-04-20 14:44 41.26029 36.55415 11 ft 3 kts 134°
2026-04-20 14:44 41.26005 36.55448 33 ft 7 kts 133°
2026-04-20 14:44 41.25967 36.55502 50 ft 9 kts 134°
2026-04-20 14:45 41.25920 36.55566 48 ft 10 kts 134°
2026-04-20 14:45 41.25884 36.55615 49 ft 6 kts 134°
2026-04-20 14:45 41.25879 36.55622 48 ft 1 kts 134°
2026-04-20 14:45 41.25878 36.55633 48 ft 2 kts 99°
2026-04-20 14:46 41.25881 36.55657 48 ft 4 kts 78°
2026-04-20 14:46 41.25904 36.55700 49 ft 8 kts 46°
2026-04-20 14:46 41.25953 36.55763 48 ft 12 kts 43°
2026-04-20 14:46 41.26010 36.55850 47 ft 8 kts 61°
2026-04-20 14:47 41.26006 36.55923 45 ft 9 kts 120°
2026-04-20 14:47 41.25963 36.55991 44 ft 11 kts 134°
2026-04-20 14:47 41.25908 36.56066 44 ft 12 kts 134°
2026-04-20 14:48 41.25777 36.56250 21 ft 16 kts 134°
2026-04-20 14:48 41.25695 36.56361 10 ft 18 kts 134°
2026-04-20 14:48 41.25607 36.56484 11 ft 20 kts 133°
2026-04-20 14:48 41.25505 36.56626 9 ft 22 kts 132°
2026-04-20 14:49 41.25391 36.56784 8 ft 25 kts 134°
2026-04-20 14:49 41.25267 36.56957 9 ft 27 kts 134°
2026-04-20 14:49 41.25134 36.57144 12 ft 28 kts 133°
2026-04-20 14:49 41.24993 36.57338 12 ft 30 kts 133°
2026-04-20 14:50 41.24844 36.57547 11 ft 32 kts 134°
2026-04-20 14:50 41.24685 36.57764 11 ft 28 kts 129°
2026-04-20 14:50 41.24606 36.57933 12 ft 3 kts 136°
2026-04-20 14:50 41.24599 36.57931 12 ft 1 kts 203°
2026-04-20 14:51 41.24592 36.57913 12 ft 4 kts 251°
2026-04-20 14:51 41.24606 36.57884 11 ft 5 kts 306°
2026-04-20 14:51 41.24619 36.57862 11 ft 0 kts 310°
2026-04-20 14:52 41.24639 36.57833 11 ft 14 kts 313°
2026-04-20 14:53 41.24862 36.57525 12 ft 83 kts 314°
2026-04-20 14:53 41.25425 36.56755 9 ft 146 kts 314°
2026-04-20 14:53 41.26201 36.55660 388 ft 165 kts 314°
2026-04-20 14:53 41.26977 36.54609 1219 ft 155 kts 316°
2026-04-20 14:54 41.27743 36.53637 2005 ft 149 kts 318°
2026-04-20 14:54 41.28507 36.52730 2694 ft 143 kts 320°
2026-04-20 14:54 41.28974 36.52111 2968 ft 144 kts 315°
2026-04-20 14:54 41.29690 36.51037 3231 ft 167 kts 306°
2026-04-20 14:55 41.29979 36.49469 3444 ft 191 kts 263°
2026-04-20 14:55 41.29470 36.47743 3633 ft 212 kts 246°
2026-04-20 14:55 41.28790 36.45884 3820 ft 236 kts 245°
2026-04-20 14:55 41.28023 36.43821 4086 ft 260 kts 244°
2026-04-20 14:56 41.27201 36.41617 4748 ft 269 kts 245°
2026-04-20 14:56 41.26393 36.39440 5650 ft 260 kts 245°
2026-04-20 14:56 41.25596 36.37286 6556 ft 259 kts 245°
2026-04-20 14:56 41.24809 36.35136 7311 ft 265 kts 245°
2026-04-20 14:57 41.23994 36.32863 7814 ft 278 kts 246°
2026-04-20 14:57 41.23143 36.30522 8506 ft 283 kts 245°
2026-04-20 14:57 41.22274 36.28162 9275 ft 286 kts 246°
2026-04-20 14:57 41.21389 36.25758 9835 ft 293 kts 246°
2026-04-20 14:58 41.20489 36.23318 10007 ft 294 kts 245°
2026-04-20 14:58 41.19559 36.20802 10106 ft 315 kts 245°
2026-04-20 14:58 41.18594 36.18187 10601 ft 323 kts 245°
2026-04-20 14:58 41.17598 36.15491 11218 ft 327 kts 245°
2026-04-20 14:59 41.16591 36.12761 11887 ft 330 kts 246°
2026-04-20 14:59 41.15576 36.10007 12516 ft 334 kts 245°
2026-04-20 14:59 41.14554 36.07229 13193 ft 337 kts 245°
2026-04-20 14:59 41.13525 36.04429 13846 ft 339 kts 245°
2026-04-20 15:00 41.12483 36.01596 14425 ft 342 kts 246°
2026-04-20 15:00 41.11429 35.98746 15003 ft 345 kts 246°
2026-04-20 15:00 41.10365 35.95881 15601 ft 348 kts 246°
2026-04-20 15:00 41.09292 35.92981 16151 ft 351 kts 246°
2026-04-20 15:01 41.08300 35.90020 16725 ft 353 kts 249°
2026-04-20 15:01 41.07385 35.86974 17282 ft 356 kts 251°
2026-04-20 15:01 41.06524 35.83882 17851 ft 359 kts 255°
2026-04-20 15:01 41.06153 35.80627 18350 ft 359 kts 272°
2026-04-20 15:02 41.06166 35.77311 18824 ft 361 kts 272°
2026-04-20 15:02 41.06193 35.73960 19300 ft 364 kts 272°
2026-04-20 15:02 41.06224 35.70593 19770 ft 367 kts 272°
2026-04-20 15:02 41.06270 35.67194 20243 ft 369 kts 276°
2026-04-20 15:03 41.06484 35.63801 20716 ft 372 kts 277°
2026-04-20 15:03 41.06754 35.60377 21192 ft 374 kts 278°
2026-04-20 15:03 41.07053 35.56940 21672 ft 377 kts 279°
2026-04-20 15:03 41.07363 35.53477 22132 ft 380 kts 279°
2026-04-20 15:04 41.07674 35.49988 22601 ft 382 kts 279°
2026-04-20 15:04 41.07979 35.46463 23077 ft 385 kts 279°
2026-04-20 15:04 41.08273 35.42976 23522 ft 387 kts 278°
2026-04-20 15:04 41.08565 35.39417 23911 ft 390 kts 278°
2026-04-20 15:05 41.08856 35.35834 24306 ft 391 kts 278°
2026-04-20 15:05 41.09147 35.32250 24703 ft 393 kts 278°
2026-04-20 15:05 41.09439 35.28638 25091 ft 394 kts 278°
2026-04-20 15:05 41.09730 35.25023 25497 ft 395 kts 278°
2026-04-20 15:06 41.10024 35.21394 25887 ft 397 kts 278°
2026-04-20 15:06 41.10317 35.17749 26280 ft 398 kts 278°
2026-04-20 15:06 41.10608 35.14091 26684 ft 400 kts 278°
2026-04-20 15:06 41.10899 35.10421 27068 ft 401 kts 278°
2026-04-20 15:07 41.11191 35.06733 27452 ft 402 kts 278°
2026-04-20 15:07 41.11481 35.03035 27818 ft 404 kts 277°
2026-04-20 15:07 41.11771 34.99324 28200 ft 406 kts 277°
2026-04-20 15:07 41.12061 34.95596 28551 ft 407 kts 277°
2026-04-20 15:08 41.12351 34.91854 28906 ft 409 kts 277°
2026-04-20 15:08 41.12644 34.88094 29265 ft 410 kts 277°
2026-04-20 15:08 41.12939 34.84318 29611 ft 412 kts 277°
2026-04-20 15:08 41.13235 34.80533 29932 ft 414 kts 277°
2026-04-20 15:09 41.13530 34.76733 30279 ft 414 kts 277°
2026-04-20 15:09 41.13822 34.72923 30611 ft 415 kts 277°
2026-04-20 15:09 41.14108 34.69163 30911 ft 415 kts 277°
2026-04-20 15:09 41.14395 34.65345 31217 ft 416 kts 277°
2026-04-20 15:10 41.14682 34.61535 31639 ft 414 kts 277°
2026-04-20 15:10 41.14967 34.57752 32078 ft 411 kts 277°
2026-04-20 15:10 41.15246 34.53990 32522 ft 409 kts 277°
2026-04-20 15:10 41.15523 34.50249 32944 ft 406 kts 277°
2026-04-20 15:11 41.15796 34.46529 33348 ft 404 kts 277°
2026-04-20 15:11 41.16069 34.42826 33754 ft 402 kts 277°
2026-04-20 15:11 41.16339 34.39140 34133 ft 400 kts 277°
2026-04-20 15:11 41.16606 34.35477 34417 ft 398 kts 277°
2026-04-20 15:12 41.16874 34.31818 34675 ft 399 kts 277°
2026-04-20 15:12 41.17141 34.28155 34925 ft 399 kts 277°
2026-04-20 15:12 41.17405 34.24490 35180 ft 399 kts 276°
2026-04-20 15:12 41.17667 34.20821 35419 ft 400 kts 276°
2026-04-20 15:13 41.17930 34.17143 35644 ft 400 kts 276°
2026-04-20 15:13 41.18191 34.13474 35848 ft 400 kts 276°
2026-04-20 15:13 41.18451 34.09791 35956 ft 398 kts 276°
2026-04-20 15:14 41.18954 34.02610 35965 ft 386 kts 276°
2026-04-20 15:14 41.19443 33.95578 35967 ft 384 kts 276°
2026-04-20 15:15 41.19931 33.88515 35963 ft 384 kts 276°
2026-04-20 15:15 41.20415 33.81450 35964 ft 384 kts 276°
2026-04-20 15:16 41.20896 33.74398 35965 ft 384 kts 276°
2026-04-20 15:16 41.21371 33.67337 35975 ft 384 kts 276°
2026-04-20 15:17 41.21841 33.60280 35980 ft 383 kts 276°
2026-04-20 15:17 41.22302 33.53222 35981 ft 383 kts 276°
2026-04-20 15:18 41.22765 33.46173 35981 ft 383 kts 276°
2026-04-20 15:18 41.23227 33.39124 35982 ft 383 kts 276°
2026-04-20 15:19 41.23677 33.32068 35984 ft 383 kts 275°
2026-04-20 15:19 41.24123 33.25017 35982 ft 382 kts 275°
2026-04-20 15:20 41.24562 33.18026 35985 ft 382 kts 275°
2026-04-20 15:20 41.25001 33.10992 35988 ft 382 kts 275°
2026-04-20 15:21 41.25435 33.03950 35989 ft 382 kts 275°
2026-04-20 15:21 41.25864 32.96915 35993 ft 382 kts 275°
2026-04-20 15:22 41.26288 32.89878 35987 ft 382 kts 275°
2026-04-20 15:22 41.26712 32.82849 35995 ft 381 kts 275°
2026-04-20 15:23 41.27128 32.75824 35999 ft 381 kts 275°
2026-04-20 15:23 41.27539 32.68797 36005 ft 381 kts 275°
2026-04-20 15:24 41.27939 32.61771 35999 ft 381 kts 275°
2026-04-20 15:24 41.28341 32.54742 35998 ft 381 kts 275°
2026-04-20 15:25 41.28742 32.47723 36005 ft 381 kts 275°
2026-04-20 15:25 41.29139 32.40692 36010 ft 381 kts 275°
2026-04-20 15:26 41.29535 32.33656 36015 ft 381 kts 275°
2026-04-20 15:26 41.29915 32.26673 36019 ft 381 kts 275°
2026-04-20 15:27 41.30292 32.19653 36017 ft 381 kts 275°
2026-04-20 15:27 41.30668 32.12619 36016 ft 381 kts 275°
2026-04-20 15:28 41.31038 32.05606 36015 ft 380 kts 275°
2026-04-20 15:28 41.31413 31.98574 35751 ft 381 kts 275°
2026-04-20 15:28 41.31598 31.95057 35502 ft 380 kts 275°
2026-04-20 15:29 41.31781 31.91546 35253 ft 379 kts 275°
2026-04-20 15:29 41.31960 31.88077 34946 ft 375 kts 274°
2026-04-20 15:29 41.32135 31.84633 34547 ft 371 kts 274°
2026-04-20 15:29 41.32307 31.81228 34151 ft 368 kts 274°
2026-04-20 15:30 41.32475 31.77849 33701 ft 364 kts 274°
2026-04-20 15:30 41.32642 31.74515 33313 ft 359 kts 274°
2026-04-20 15:30 41.32805 31.71270 32928 ft 354 kts 275°
2026-04-20 15:30 41.32968 31.68026 32538 ft 350 kts 274°
2026-04-20 15:31 41.33126 31.64797 32152 ft 349 kts 275°
2026-04-20 15:31 41.33282 31.61586 31768 ft 347 kts 275°
2026-04-20 15:31 41.33438 31.58391 31387 ft 345 kts 275°
2026-04-20 15:31 41.33593 31.55207 31011 ft 344 kts 275°
2026-04-20 15:32 41.33747 31.52033 30641 ft 343 kts 275°
2026-04-20 15:32 41.33897 31.48877 30276 ft 341 kts 275°
2026-04-20 15:32 41.34045 31.45734 29883 ft 340 kts 275°
2026-04-20 15:32 41.34190 31.42604 29520 ft 339 kts 275°
2026-04-20 15:33 41.34337 31.39478 29168 ft 337 kts 275°
2026-04-20 15:33 41.34484 31.36369 28819 ft 336 kts 275°
2026-04-20 15:33 41.34632 31.33273 28472 ft 335 kts 275°
2026-04-20 15:33 41.34780 31.30188 28140 ft 334 kts 275°
2026-04-20 15:34 41.34923 31.27114 27796 ft 332 kts 275°
2026-04-20 15:34 41.35064 31.24045 27457 ft 331 kts 274°
2026-04-20 15:34 41.35203 31.20992 27120 ft 330 kts 274°
2026-04-20 15:34 41.35339 31.17949 26771 ft 329 kts 274°
2026-04-20 15:35 41.35470 31.14915 26441 ft 328 kts 274°
2026-04-20 15:35 41.35598 31.11895 26101 ft 327 kts 274°
2026-04-20 15:35 41.35728 31.08881 25753 ft 326 kts 274°
2026-04-20 15:35 41.35860 31.05885 25401 ft 323 kts 274°
2026-04-20 15:36 41.35993 31.02903 25050 ft 322 kts 274°
2026-04-20 15:36 41.36124 30.99933 24687 ft 321 kts 274°
2026-04-20 15:36 41.36251 30.96983 24337 ft 319 kts 274°
2026-04-20 15:36 41.36377 30.94037 23976 ft 318 kts 274°
2026-04-20 15:37 41.36506 30.91094 23603 ft 317 kts 274°
2026-04-20 15:37 41.36630 30.88214 23207 ft 316 kts 274°
2026-04-20 15:37 41.36752 30.85299 22842 ft 315 kts 274°
2026-04-20 15:37 41.36875 30.82391 22479 ft 313 kts 274°
2026-04-20 15:38 41.36998 30.79503 22117 ft 312 kts 274°
2026-04-20 15:38 41.37119 30.76625 21752 ft 310 kts 274°
2026-04-20 15:38 41.37234 30.73769 21392 ft 309 kts 274°
2026-04-20 15:38 41.37351 30.70922 21023 ft 307 kts 274°
2026-04-20 15:39 41.37468 30.68097 20671 ft 305 kts 274°
2026-04-20 15:39 41.37581 30.65285 20313 ft 303 kts 274°
2026-04-20 15:39 41.37692 30.62487 19953 ft 302 kts 274°
2026-04-20 15:39 41.37803 30.59702 19592 ft 301 kts 274°
2026-04-20 15:40 41.37915 30.56928 19246 ft 299 kts 274°
2026-04-20 15:40 41.38026 30.54168 18892 ft 298 kts 274°
2026-04-20 15:40 41.38137 30.51417 18542 ft 297 kts 274°
2026-04-20 15:40 41.38247 30.48678 18173 ft 296 kts 274°
2026-04-20 15:41 41.38353 30.45951 17802 ft 294 kts 274°
2026-04-20 15:41 41.38457 30.43238 17451 ft 293 kts 274°
2026-04-20 15:41 41.38561 30.40539 17098 ft 291 kts 274°
2026-04-20 15:41 41.38662 30.37892 16762 ft 289 kts 274°
2026-04-20 15:42 41.38763 30.35219 16418 ft 287 kts 274°
2026-04-20 15:42 41.38861 30.32576 16080 ft 285 kts 274°
2026-04-20 15:42 41.38960 30.29946 15745 ft 284 kts 274°
2026-04-20 15:42 41.39058 30.27324 15411 ft 282 kts 274°
2026-04-20 15:43 41.39154 30.24722 15079 ft 281 kts 274°
2026-04-20 15:43 41.39247 30.22140 14749 ft 279 kts 274°
2026-04-20 15:43 41.39340 30.19561 14415 ft 278 kts 274°
2026-04-20 15:43 41.39432 30.17006 14093 ft 276 kts 274°
2026-04-20 15:44 41.39526 30.14458 13758 ft 275 kts 275°
2026-04-20 15:44 41.39588 30.12771 13522 ft 274 kts 274°
2026-04-20 15:44 41.39681 30.10246 13184 ft 272 kts 274°
2026-04-20 15:44 41.39770 30.07731 12861 ft 271 kts 274°
2026-04-20 15:45 41.39853 30.05233 12539 ft 270 kts 274°
2026-04-20 15:45 41.39937 30.02735 12216 ft 269 kts 274°
2026-04-20 15:45 41.40022 30.00256 11887 ft 267 kts 274°
2026-04-20 15:45 41.40110 29.97790 11603 ft 266 kts 274°
2026-04-20 15:46 41.40198 29.95335 11291 ft 264 kts 274°
2026-04-20 15:46 41.40283 29.92895 10981 ft 263 kts 274°
2026-04-20 15:46 41.40367 29.90467 10664 ft 262 kts 274°
2026-04-20 15:46 41.40250 29.88057 10347 ft 261 kts 257°
2026-04-20 15:47 41.39524 29.85859 10063 ft 260 kts 236°
2026-04-20 15:47 41.38205 29.84083 10006 ft 280 kts 216°
2026-04-20 15:47 41.36408 29.82987 10014 ft 289 kts 199°
2026-04-20 15:47 41.34480 29.82187 9797 ft 291 kts 199°
2026-04-20 15:48 41.32571 29.81398 9293 ft 291 kts 199°
2026-04-20 15:48 41.30643 29.80601 8890 ft 289 kts 199°
2026-04-20 15:48 41.28743 29.79814 8612 ft 284 kts 199°
2026-04-20 15:48 41.26861 29.79033 8387 ft 283 kts 199°
2026-04-20 15:49 41.24983 29.78251 8154 ft 282 kts 199°
2026-04-20 15:49 41.23113 29.77471 7936 ft 281 kts 199°
2026-04-20 15:49 41.21254 29.76693 7718 ft 281 kts 199°
2026-04-20 15:49 41.19394 29.75917 7500 ft 280 kts 199°
2026-04-20 15:50 41.17540 29.75144 7280 ft 279 kts 199°
2026-04-20 15:50 41.15686 29.74374 7064 ft 278 kts 199°
2026-04-20 15:50 41.13846 29.73611 6834 ft 277 kts 199°
2026-04-20 15:50 41.12007 29.72853 6627 ft 276 kts 199°
2026-04-20 15:51 41.10176 29.72099 6412 ft 275 kts 199°
2026-04-20 15:51 41.08369 29.71354 6234 ft 267 kts 199°
2026-04-20 15:51 41.06631 29.70639 6096 ft 257 kts 199°
2026-04-20 15:51 41.04991 29.69851 5948 ft 245 kts 210°
2026-04-20 15:52 41.03659 29.68530 5751 ft 236 kts 228°
2026-04-20 15:52 41.02716 29.66775 5429 ft 233 kts 240°
2026-04-20 15:52 41.01902 29.64946 5087 ft 233 kts 240°
2026-04-20 15:53 41.00245 29.61271 4460 ft 228 kts 239°
2026-04-20 15:53 40.99372 29.59538 4385 ft 228 kts 236°
2026-04-20 15:53 40.98565 29.57734 4321 ft 228 kts 242°
2026-04-20 15:53 40.97856 29.55853 4180 ft 228 kts 244°
2026-04-20 15:54 40.97181 29.53994 3930 ft 220 kts 244°
2026-04-20 15:54 40.96531 29.52210 3752 ft 212 kts 244°
2026-04-20 15:54 40.95893 29.50463 3462 ft 210 kts 243°
2026-04-20 15:54 40.95260 29.48730 3142 ft 209 kts 243°
2026-04-20 15:55 40.94630 29.47008 2832 ft 206 kts 243°
2026-04-20 15:55 40.94013 29.45322 2509 ft 200 kts 243°
2026-04-20 15:55 40.93427 29.43722 2213 ft 184 kts 243°
2026-04-20 15:55 40.92896 29.42272 1908 ft 167 kts 243°
2026-04-20 15:56 40.92411 29.40948 1675 ft 153 kts 243°
2026-04-20 15:56 40.91958 29.39714 1435 ft 146 kts 243°
2026-04-20 15:56 40.91524 29.38532 1215 ft 143 kts 244°
2026-04-20 15:56 40.91092 29.37362 1020 ft 141 kts 248°
2026-04-20 15:57 40.90663 29.36190 647 ft 144 kts 246°
2026-04-20 15:57 40.90255 29.35022 552 ft 138 kts 244°
2026-04-20 15:57 40.89760 29.33929 393 ft 144 kts 242°
2026-04-20 15:57 40.89210 29.32886 1026 ft 139 kts 231°
2026-04-20 15:58 40.88711 29.31651 1565 ft 165 kts 250°
2026-04-20 15:58 40.88394 29.30075 2127 ft 191 kts 252°
2026-04-20 15:58 40.87903 29.28341 2662 ft 213 kts 246°
2026-04-20 15:58 40.87288 29.26461 3327 ft 238 kts 245°
2026-04-20 15:59 40.86547 29.24265 3476 ft 287 kts 245°
2026-04-20 15:59 40.85729 29.21854 3502 ft 280 kts 245°
2026-04-20 15:59 40.84959 29.19597 3505 ft 260 kts 243°
2026-04-20 15:59 40.83882 29.17795 3510 ft 252 kts 216°
2026-04-20 16:00 40.82251 29.16937 3506 ft 257 kts 186°
2026-04-20 16:00 40.80488 29.17255 3507 ft 260 kts 157°
2026-04-20 16:00 40.79004 29.18617 3508 ft 262 kts 139°
2026-04-20 16:00 40.77697 29.20303 3502 ft 264 kts 131°
2026-04-20 16:01 40.76858 29.22434 3500 ft 266 kts 103°
2026-04-20 16:01 40.76896 29.24861 3498 ft 268 kts 74°
2026-04-20 16:01 40.77790 29.26985 3495 ft 267 kts 50°
2026-04-20 16:01 40.79029 29.28815 3509 ft 267 kts 47°
2026-04-20 16:02 40.80280 29.30626 3507 ft 266 kts 49°
2026-04-20 16:02 40.81220 29.32703 3506 ft 265 kts 74°
2026-04-20 16:02 40.81338 29.35104 3512 ft 264 kts 97°
2026-04-20 16:02 40.81081 29.37506 3510 ft 264 kts 100°
2026-04-20 16:03 40.80780 29.39896 3509 ft 264 kts 100°
2026-04-20 16:03 40.80475 29.42289 3508 ft 264 kts 100°
2026-04-20 16:03 40.80172 29.44681 3507 ft 264 kts 100°
2026-04-20 16:03 40.80131 29.47090 3501 ft 262 kts 77°
2026-04-20 16:04 40.80878 29.49288 3506 ft 265 kts 59°
2026-04-20 16:04 40.81887 29.51335 3502 ft 267 kts 57°
2026-04-20 16:04 40.82926 29.53365 3504 ft 267 kts 56°
2026-04-20 16:04 40.83962 29.55389 3501 ft 264 kts 56°
2026-04-20 16:05 40.85038 29.57305 3499 ft 263 kts 43°
2026-04-20 16:05 40.86622 29.58472 3503 ft 263 kts 14°
2026-04-20 16:05 40.88393 29.58481 3500 ft 249 kts 344°
2026-04-20 16:05 40.89875 29.57493 3496 ft 231 kts 320°
2026-04-20 16:06 40.90772 29.55799 3501 ft 227 kts 286°
2026-04-20 16:06 40.90817 29.53746 3503 ft 227 kts 254°
2026-04-20 16:06 40.90308 29.51784 3502 ft 225 kts 248°
2026-04-20 16:06 40.89700 29.49877 3502 ft 225 kts 244°
2026-04-20 16:07 40.89056 29.48038 3411 ft 215 kts 246°
2026-04-20 16:07 40.88501 29.46241 3221 ft 205 kts 245°
2026-04-20 16:07 40.87919 29.44603 3077 ft 190 kts 242°
2026-04-20 16:07 40.87338 29.43089 2856 ft 178 kts 237°
2026-04-20 16:08 40.86582 29.41895 2674 ft 164 kts 220°
2026-04-20 16:08 40.85789 29.40886 2440 ft 154 kts 230°
2026-04-20 16:08 40.85231 29.39704 2178 ft 150 kts 249°
2026-04-20 16:08 40.85335 29.38372 1897 ft 151 kts 301°
2026-04-20 16:09 40.86186 29.37594 1521 ft 155 kts 350°
2026-04-20 16:09 40.87243 29.37614 1262 ft 148 kts
2026-04-20 16:09 40.88260 29.37763 1194 ft 147 kts
2026-04-20 16:09 40.89272 29.37781 1148 ft 146 kts 343°
2026-04-20 16:10 40.90030 29.36975 1095 ft 142 kts 289°
2026-04-20 16:10 40.90157 29.35703 891 ft 143 kts 269°
2026-04-20 16:10 40.89995 29.34430 540 ft 140 kts 249°
2026-04-20 16:10 40.89599 29.33289 323 ft 126 kts 242°
2026-04-20 16:11 40.89239 29.32346 306 ft 105 kts 244°
2026-04-20 16:11 40.89021 29.31724 310 ft 48 kts 245°
2026-04-20 16:11 40.88958 29.31409 306 ft 19 kts 283°
2026-04-20 16:11 40.88965 29.31295 307 ft 19 kts 274°
2026-04-20 16:12 40.88969 29.31230 306 ft 0 kts 274°
2026-04-20 16:13 40.88972 29.31210 304 ft 5 kts 286°
2026-04-20 16:13 40.89012 29.31179 306 ft 9 kts
2026-04-20 16:13 40.89058 29.31238 306 ft 11 kts 62°
2026-04-20 16:14 40.89094 29.31344 308 ft 15 kts 65°
2026-04-20 16:14 40.89151 29.31449 309 ft 9 kts 15°
2026-04-20 16:14 40.89222 29.31438 309 ft 12 kts 19°
2026-04-20 16:14 40.89275 29.31532 309 ft 14 kts 50°
2026-04-20 16:15 40.89356 29.31542 308 ft 13 kts 336°
2026-04-20 16:15 40.89445 29.31485 307 ft 15 kts 333°
2026-04-20 16:15 40.89505 29.31456 311 ft 8 kts
2026-04-20 16:15 40.89534 29.31489 310 ft 0 kts 63°
2026-04-20 16:16 40.89538 29.31509 309 ft 4 kts 79°
2026-04-20 16:16 40.89543 29.31548 311 ft 0 kts 75°